TimeCDT,TemperatureF,Dew PointF,Humidity,Sea Level PressureIn,VisibilityMPH,Wind Direction,Wind SpeedMPH,Gust SpeedMPH,PrecipitationIn,Events,Conditions,WindDirDegrees,DateUTC
12:53 AM,27.0,17.1,66,30.41,10.0,North,9.2,-,N/A,,Clear,360,2012-10-06 05:53:00
1:53 AM,26.1,17.1,69,30.41,10.0,North,9.2,-,N/A,,Clear,350,2012-10-06 06:53:00
2:53 AM,21.9,16.0,78,30.42,10.0,NW,9.2,-,N/A,,Clear,320,2012-10-06 07:53:00
3:53 AM,23.0,18.0,81,30.43,10.0,WNW,9.2,-,N/A,,Clear,290,2012-10-06 08:53:00
4:53 AM,25.0,19.9,81,30.44,10.0,West,9.2,-,N/A,,Clear,280,2012-10-06 09:53:00
5:53 AM,25.0,21.0,85,30.44,10.0,NW,9.2,-,N/A,,Clear,320,2012-10-06 10:53:00
6:53 AM,21.9,19.9,92,30.46,10.0,NW,8.1,-,N/A,,Clear,310,2012-10-06 11:53:00
7:53 AM,21.9,19.0,89,30.47,10.0,WNW,8.1,-,N/A,,Clear,300,2012-10-06 12:53:00
8:53 AM,26.1,23.0,88,30.47,10.0,NW,6.9,-,N/A,,Clear,310,2012-10-06 13:53:00
9:53 AM,32.0,27.0,82,30.48,10.0,NNW,10.4,-,N/A,,Clear,330,2012-10-06 14:53:00
10:04 AM,33.8,26.6,75,30.42,10.0,NW,11.5,-,N/A,,Partly Cloudy,310,2012-10-06 15:04:00
10:53 AM,36.0,26.1,67,30.48,10.0,NW,12.7,-,N/A,,Mostly Cloudy,310,2012-10-06 15:53:00
11:18 AM,39.2,26.6,61,30.41,10.0,NW,12.7,-,N/A,,Scattered Clouds,320,2012-10-06 16:18:00
11:28 AM,37.4,24.8,60,30.41,10.0,NNW,11.5,18.4,N/A,,Mostly Cloudy,330,2012-10-06 16:28:00
11:53 AM,39.9,25.0,55,30.46,10.0,NNW,11.5,-,N/A,,Overcast,330,2012-10-06 16:53:00
12:53 PM,41.0,23.0,49,30.44,10.0,NW,5.8,-,N/A,,Mostly Cloudy,310,2012-10-06 17:53:00
1:53 PM,42.1,21.0,43,30.43,10.0,West,6.9,-,N/A,,Overcast,280,2012-10-06 18:53:00
2:53 PM,43.0,23.0,45,30.40,10.0,Variable,5.8,-,N/A,,Mostly Cloudy,0,2012-10-06 19:53:00
3:53 PM,44.1,21.0,40,30.38,10.0,West,5.8,-,N/A,,Overcast,270,2012-10-06 20:53:00
4:53 PM,45.0,19.0,36,30.35,10.0,NNW,8.1,-,N/A,,Partly Cloudy,330,2012-10-06 21:53:00
5:53 PM,44.1,19.0,37,30.34,10.0,WNW,4.6,-,N/A,,Clear,290,2012-10-06 22:53:00
6:53 PM,42.1,19.0,40,30.33,10.0,Calm,Calm,-,N/A,,Clear,0,2012-10-06 23:53:00
7:53 PM,37.0,18.0,46,30.33,10.0,Calm,Calm,-,N/A,,Clear,0,2012-10-07 00:53:00
8:53 PM,33.1,16.0,50,30.32,10.0,Calm,Calm,-,N/A,,Clear,0,2012-10-07 01:53:00
9:53 PM,33.1,17.1,52,30.30,10.0,SSE,3.5,-,N/A,,Clear,160,2012-10-07 02:53:00
11:53 PM,30.0,19.0,64,30.27,10.0,SSE,5.8,-,N/A,,Clear,150,2012-10-07 04:53:00